Starlink 33579

operational
NORAD ID: 62764 Int'l Des: 2025-015 Owner: SPXS Country: US Constellation: starlink
LEOCIRCULAR

About Starlink 33579

Description loading...

Live Position

Loading 3D Globe...

Upcoming Passes

Altitude History

Altitude vs Time

uPlot chart will show altitude changes over time

Two-Line Element Set

1 62764U 25015G 26036.21208649 .00053773 00000-0 18122-2 0 9998
2 62764 53.1596 112.9624 0001349 86.1383 273.9772 15.30242687 59512
Epoch: Feb 5, 2026 • Age: 9 hours

Current Status

Altitude 475.7 km
Velocity 7.63 km/s
Sub-Earth Point 0.63°N, 118.38°E
Launch Date Jan 21, 2025
Age 1 years
Type internet

Technical Details

Classification Payload
Mass 575.00 kg
Dry Mass 530.00 kg
Total Mass 575.00 kg
Length 0.30 m
Diameter 4.10 m
Span 29.00 m
Shape Box + pan
Manufacturer SPXS
Bus Type Starlink V2MO
Phase Status In Orbit
Owner/State SPXS/US

Large Constellations

Loading constellations...